Detroit Lakes, MN

12:22 AM CDT on April 22, 2018 (GMT -0500)
Detroit Lakes

Weather History for KDTL - November, 2011

Change the Weather History Date:

Thursday, November 10, 2011

  Actual Average Record
Temperature  
Mean Temperature 32 °F -  
Max Temperature 35 °F 35 °F 64 °F (1937)
Min Temperature 28 °F 21 °F -2 °F (1936)
Degree Days  
Heating Degree Days 34    
Moisture  
Dew Point 27 °F    
Average Humidity 81    
Maximum Humidity 93    
Minimum Humidity 60    
Precipitation  
Precipitation 0.00 in - - ()
Sea Level Pressure  
Sea Level Pressure 30.04 in    
Wind  
Wind Speed 15 mph (WNW)    
Max Wind Speed 21 mph    
Max Gust Speed 29 mph    
Visibility 10 miles    
Events Snow    
Averages and records for this station are not official NWS values.
T = Trace of Precipitation, MM = Missing Value Source: NWS Daily Summary

Daily Weather History Graph

Daily Weather History Graph

Search for Another Location

Airport or City:

Astronomy

Nov. 10, 2011 Rise Set
Actual Time 7:18 AM CST 4:55 PM CST
Civil Twilight 6:46 AM CST 5:28 PM CST
Nautical Twilight 6:09 AM CST 6:04 PM CST
Astronomical Twilight 5:34 AM CST 6:40 PM CST
Moon 4:40 PM CST (11/10) 7:15 AM CST (11/10)
Length of Visible Light 10h 41m
Length of Day
9h 36m
Full, 100% of the Moon is Illuminated
Nov 10
Full
Nov 10
Full
Nov 18
Last Quarter
Nov 25
New
Dec 2
First Quarter

Hourly Weather History & Observations

Time (CST) Temp. Windchill Dew Point Humidity Pressure Visibility Wind Dir Wind Speed Gust Speed Precip Events Conditions
12:13 AM 32.0 °F 20.8 °F 30.2 °F 93% 30.04 in 10.0 mi NW 17.3 mph 23.0 mph N/A Snow Light Snow
12:34 AM 32.0 °F 20.8 °F 30.2 °F 93% 30.04 in 10.0 mi NW 17.3 mph 25.3 mph N/A Snow Light Snow
12:53 AM 32.0 °F 21.2 °F 30.2 °F 93% 30.04 in 10.0 mi NW 16.1 mph 23.0 mph N/A Snow Light Snow
1:13 AM 32.0 °F 20.8 °F 30.2 °F 93% 30.04 in 10.0 mi NW 17.3 mph 27.6 mph N/A Snow Light Snow
1:34 AM 32.0 °F 20.5 °F 30.2 °F 93% 30.04 in 10.0 mi NW 18.4 mph 25.3 mph N/A   Mostly Cloudy
1:53 AM 32.0 °F 19.8 °F 28.4 °F 87% 30.04 in 10.0 mi NW 20.7 mph 26.5 mph N/A   Mostly Cloudy
2:13 AM 32.0 °F 21.2 °F 28.4 °F 87% 30.05 in 10.0 mi NW 16.1 mph 25.3 mph N/A   Overcast
2:33 AM 32.0 °F 21.2 °F 28.4 °F 87% 30.05 in 10.0 mi NNW 16.1 mph 28.8 mph N/A   Overcast
2:53 AM 32.0 °F 20.5 °F 28.4 °F 87% 30.05 in 10.0 mi NW 18.4 mph 24.2 mph N/A   Overcast
3:14 AM 32.0 °F 20.8 °F 28.4 °F 87% 30.05 in 10.0 mi NW 17.3 mph 23.0 mph N/A   Overcast
3:33 AM 32.0 °F 20.8 °F 28.4 °F 87% 30.05 in 10.0 mi NW 17.3 mph 24.2 mph N/A   Overcast
3:53 AM 32.0 °F 20.1 °F 28.4 °F 87% 30.05 in 10.0 mi NW 19.6 mph - N/A   Overcast
4:14 AM 32.0 °F 20.8 °F 28.4 °F 87% 30.05 in 10.0 mi NW 17.3 mph 20.7 mph N/A   Overcast
4:53 AM 30.2 °F 18.9 °F 26.6 °F 86% 30.06 in 10.0 mi NW 16.1 mph 26.5 mph N/A   Overcast
5:14 AM 30.2 °F 18.1 °F 26.6 °F 86% 30.06 in 10.0 mi NW 18.4 mph 23.0 mph N/A   Overcast
5:33 AM 30.2 °F 17.8 °F 26.6 °F 86% 30.07 in 10.0 mi NW 19.6 mph 27.6 mph N/A   Overcast
5:53 AM 30.2 °F 17.4 °F 26.6 °F 86% 30.07 in 10.0 mi NW 20.7 mph 26.5 mph N/A   Overcast
6:14 AM 30.2 °F 17.4 °F 26.6 °F 86% 30.08 in 10.0 mi NW 20.7 mph 26.5 mph N/A   Overcast
6:33 AM 30.2 °F 17.8 °F 26.6 °F 86% 30.08 in 10.0 mi NW 19.6 mph 28.8 mph N/A   Overcast
6:53 AM 30.2 °F 18.1 °F 26.6 °F 86% 30.08 in 10.0 mi NW 18.4 mph 26.5 mph N/A   Overcast
7:13 AM 30.2 °F 18.9 °F 26.6 °F 86% 30.08 in 10.0 mi NW 16.1 mph - N/A   Overcast
7:33 AM 28.4 °F 16.2 °F 26.6 °F 93% 30.08 in 10.0 mi NW 17.3 mph 21.9 mph N/A   Overcast
7:54 AM 30.2 °F 18.9 °F 26.6 °F 86% 30.09 in 10.0 mi NW 16.1 mph 19.6 mph N/A   Overcast
8:33 AM 30.2 °F 20.2 °F 26.6 °F 86% 30.09 in 10.0 mi NW 12.7 mph - N/A   Overcast
8:54 AM 30.2 °F 18.9 °F 26.6 °F 86% 30.10 in 10.0 mi NW 16.1 mph 19.6 mph N/A   Overcast
9:13 AM 30.2 °F 19.8 °F 26.6 °F 86% 30.10 in 10.0 mi NW 13.8 mph - N/A   Overcast
9:33 AM 30.2 °F 18.9 °F 26.6 °F 86% 30.10 in 10.0 mi NW 16.1 mph - N/A   Overcast
9:54 AM 30.2 °F 20.2 °F 26.6 °F 86% 30.10 in 10.0 mi NW 12.7 mph - N/A   Overcast
10:13 AM 30.2 °F 19.3 °F 26.6 °F 86% 30.10 in 10.0 mi NW 15.0 mph - N/A   Overcast
10:33 AM 30.2 °F 20.8 °F 26.6 °F 86% 30.09 in 10.0 mi NW 11.5 mph - N/A   Overcast
10:54 AM 32.0 °F 23.6 °F 28.4 °F 87% 30.10 in 10.0 mi NW 10.4 mph - N/A   Mostly Cloudy
11:13 AM 32.0 °F 23.0 °F 28.4 °F 87% 30.09 in 10.0 mi WNW 11.5 mph - N/A   Mostly Cloudy
11:33 AM 32.0 °F 22.5 °F 28.4 °F 87% 30.09 in 10.0 mi NW 12.7 mph - N/A   Mostly Cloudy
11:54 AM 32.0 °F 23.6 °F 28.4 °F 87% 30.07 in 10.0 mi NW 10.4 mph - N/A   Mostly Cloudy
12:33 PM 33.8 °F 24.8 °F 28.4 °F 81% 30.06 in 10.0 mi WNW 12.7 mph 18.4 mph N/A   Scattered Clouds
12:54 PM 33.8 °F 24.8 °F 26.6 °F 75% 30.06 in 10.0 mi NW 12.7 mph - N/A   Scattered Clouds
1:13 PM 33.8 °F 24.8 °F 26.6 °F 75% 30.06 in 10.0 mi WNW 12.7 mph - N/A   Scattered Clouds
1:33 PM 35.6 °F 26.6 °F 26.6 °F 70% 30.05 in 10.0 mi NW 13.8 mph 18.4 mph N/A   Scattered Clouds
1:54 PM 35.6 °F 26.6 °F 26.6 °F 70% 30.04 in 10.0 mi NNW 13.8 mph - N/A   Scattered Clouds
2:13 PM 35.6 °F 28.0 °F 26.6 °F 70% 30.03 in 10.0 mi NNW 10.4 mph - N/A   Scattered Clouds
2:33 PM 35.6 °F 26.2 °F 24.8 °F 65% 30.03 in 10.0 mi West 15.0 mph - N/A   Mostly Cloudy
2:53 PM 35.6 °F 28.6 °F 23.0 °F 60% 30.02 in 10.0 mi WNW 9.2 mph - N/A   Scattered Clouds
3:14 PM 35.6 °F 28.6 °F 23.0 °F 60% 30.02 in 10.0 mi WNW 9.2 mph - N/A   Clear
3:33 PM 35.6 °F 28.6 °F 23.0 °F 60% 30.02 in 10.0 mi West 9.2 mph - N/A   Clear
3:53 PM 35.6 °F 29.9 °F 23.0 °F 60% 30.01 in 10.0 mi WNW 6.9 mph - N/A   Clear
4:14 PM 33.8 °F 28.6 °F 23.0 °F 65% 30.00 in 10.0 mi WNW 5.8 mph - N/A   Clear
4:33 PM 33.8 °F 29.6 °F 23.0 °F 65% 30.00 in 10.0 mi West 4.6 mph - N/A   Clear
4:53 PM 33.8 °F - 23.0 °F 65% 30.00 in 10.0 mi Calm Calm - N/A   Clear
5:14 PM 32.0 °F 28.7 °F 23.0 °F 69% 29.99 in 10.0 mi SW 3.5 mph - N/A   Clear
5:33 PM 32.0 °F 28.7 °F 23.0 °F 69% 29.98 in 10.0 mi SW 3.5 mph - N/A   Clear
5:53 PM 32.0 °F - 24.8 °F 75% 29.98 in 10.0 mi Calm Calm - N/A   Clear
6:13 PM 32.0 °F 28.7 °F 23.0 °F 69% 29.96 in 10.0 mi South 3.5 mph - N/A   Clear
6:33 PM 32.0 °F 28.7 °F 24.8 °F 75% 29.95 in 10.0 mi South 3.5 mph - N/A   Clear
6:54 PM 32.0 °F 27.5 °F 26.6 °F 80% 29.94 in 10.0 mi South 4.6 mph - N/A   Clear
7:13 PM 32.0 °F 27.5 °F 26.6 °F 80% 29.93 in 10.0 mi South 4.6 mph - N/A   Clear
7:33 PM 32.0 °F 26.4 °F 26.6 °F 80% 29.93 in 10.0 mi South 5.8 mph - N/A   Clear
7:54 PM 32.0 °F 25.6 °F 26.6 °F 80% 29.92 in 10.0 mi SSE 6.9 mph - N/A   Clear
8:14 PM 32.0 °F 25.6 °F 26.6 °F 80% 29.91 in 10.0 mi South 6.9 mph - N/A   Clear
8:33 PM 32.0 °F 26.4 °F 26.6 °F 80% 29.90 in 10.0 mi South 5.8 mph - N/A   Clear
8:54 PM 32.0 °F 25.6 °F 26.6 °F 80% 29.90 in 10.0 mi South 6.9 mph - N/A   Clear
9:13 PM 32.0 °F 26.4 °F 26.6 °F 80% 29.90 in 10.0 mi South 5.8 mph - N/A   Clear
9:33 PM 32.0 °F 25.6 °F 26.6 °F 80% 29.89 in 10.0 mi South 6.9 mph - N/A   Clear
9:54 PM 32.0 °F 24.8 °F 26.6 °F 80% 29.88 in 10.0 mi South 8.1 mph - N/A   Clear
10:14 PM 32.0 °F 25.6 °F 26.6 °F 80% 29.87 in 10.0 mi South 6.9 mph - N/A   Clear
10:33 PM 32.0 °F 24.2 °F 26.6 °F 80% 29.86 in 10.0 mi South 9.2 mph - N/A   Clear
10:54 PM 32.0 °F 24.8 °F 26.6 °F 80% 29.85 in 10.0 mi South 8.1 mph - N/A   Clear
11:13 PM 33.8 °F 28.6 °F 26.6 °F 75% 29.84 in 10.0 mi SSE 5.8 mph - N/A   Scattered Clouds
11:33 PM 33.8 °F 27.7 °F 26.6 °F 75% 29.82 in 10.0 mi SSE 6.9 mph - N/A   Clear
11:54 PM 33.8 °F 25.8 °F 26.6 °F 75% 29.81 in 10.0 mi SSE 10.4 mph - N/A   Scattered Clouds